Temp
29 29 28 28 27 27 27 27 27 27 27 26 25 25 25 24 23 23 23 23 22 23 23 23 23 22 23 24 25 25 25 24 24 25 25 24 24 24 24 24 24 23 24
30 30 30 29 29 29 27 27 28 27 27 26 25 24 24 23 23 22 22 23 23 23 23 23 23 23 22 23 23 23 23 23 23 22 23 24 24 24 24 23 23 24 24
31 31 30 30 29 29 29 28 28 27 26 25 24 24 24 23 23 22 22 22 23 23 23 23 22 23 22 22 22 22 22 22 22 22 22 24 24 24 24 24 23 24 24
33 32 31 30 30 30 30 29 28 28 27 25 24 23 24 24 23 23 22 22 22 23 23 23 23 22 22 22 21 22 21 21 22 22 22 23 24 25 24 24 24 24 24
31 31 31 30 30 30 29 29 28 28 26 24 23 23 23 23 23 23 22 22 22 22 23 22 22 22 22 21 21 20 20 20 21 21 22 23 22 22 22 22 23 24 24
26 24 24 26 26 25 26 25 25 25 23 21 22 22 24 23 23 23 23 23 22 22 22 22 22 21 21 21 21 20 20 19 19 20 19 19 19 20 20 20 21 21 21
21 21 21 22 21 21 21 21 21 21 21 20 21 22 22 22 22 22 23 23 23 22 22 22 22 22 21 20 20 20 19 20 20 19 19 19 19 19 19 19 19 19 19
20 20 20 20 20 20 20 21 20 21 21 21 21 21 20 21 22 22 22 23 23 22 22 22 22 21 20 20 19 19 19 19 20 20 19 19 19 19 19 18 18 19 19
21 20 20 21 21 21 20 20 20 20 20 20 20 21 20 20 20 21 21 22 22 22 21 21 20 20 20 20 20 19 19 20 20 20 19 19 19 19 19 19 18 18 19
21 20 21 21 21 20 19 18 18 19 19 20 20 20 20 20 20 19 20 20 20 20 20 20 20 20 19 19 19 18 18 19 19 19 19 19 19 19 19 19 18 17 18
21 21 20 20 20 19 18 17 16 17 17 17 17 16 16 17 17 15 16 16 15 14 14 15 16 17 17 16 16 17 17 18 19 19 19 19 20 20 20 20 19 19 18
21 21 20 20 20 19 18 18 17 16 15 15 15 15 15 15 15 15 15 15 14 14 14 14 14 15 15 15 16 16 15 16 17 18 18 19 20 20 20 19 19 18 18
21 20 20 19 19 20 20 20 20 18 16 15 15 15 14 14 14 14 14 14 14 14 14 14 14 15 15 15 15 15 15 15 15 16 17 18 18 19 19 20 20 20 20
21 21 20 18 18 18 18 18 17 17 19 18 16 16 15 14 14 14 15 15 15 15 15 15 15 15 15 15 15 15 15 15 15 14 14 16 17 17 18 18 19 20 20
21 22 21 20 19 18 17 17 17 16 16 17 16 16 16 16 15 15 15 15 15 14 15 15 15 15 14 15 15 14 14 14 14 14 15 15 16 16 16 16 16 16 17
23 23 22 22 22 21 18 15 16 16 16 16 16 16 15 15 15 15 15 15 15 15 15 14 14 14 14 14 13 13 13 13 14 14 14 14 14 14 14 14 15 15 15
23 22 21 21 20 20 19 19 16 15 16 16 16 17 17 16 16 15 15 15 15 15 14 14 14 14 14 14 14 13 13 13 13 13 13 14 14 14 14 14 14 14 14
22 22 22 21 20 19 19 18 17 17 18 16 16 17 17 17 17 16 16 16 16 16 16 16 16 15 15 15 14 14 14 14 14 14 14 14 14 15 15 15 15 15 14
21 21 22 21 21 21 21 20 19 20 19 17 16 16 17 16 16 16 17 17 18 18 17 17 17 16 16 16 15 15 15 15 15 15 15 15 16 15 15 15 15 15 15
20 20 20 21 21 21 21 22 22 22 21 20 18 17 17 17 17 18 18 17 17 17 17 17 16 16 16 16 16 15 16 16 16 16 16 16 15 15 15 15 15 15 15
21 20 20 22 21 21 21 21 21 21 20 20 17 18 17 17 17 18 18 18 18 17 17 17 16 16 16 16 16 16 16 16 16 15 13 14 14 13 13 13 13 13 13
22 22 21 21 20 20 20 21 20 20 20 20 19 18 18 18 18 18 18 18 17 17 17 17 16 16 16 16 16 16 15 15 15 14 14 13 13 13 13 13 13 13 12
22 22 21 20 20 20 20 20 19 19 19 19 19 19 19 19 19 19 18 18 18 18 18 17 17 16 16 16 15 15 15 14 14 14 14 13 12 12 12 12 12 12 11
21 21 20 19 19 20 19 20 19 19 19 19 19 19 19 19 19 18 18 18 17 16 15 15 15 15 15 15 15 15 14 13 13 13 12 12 12 12 12 11 11 11 11
21 20 20 19 19 19 19 19 19 19 19 19 19 19 18 18 18 18 17 16 15 15 15 14 14 14 14 14 13 11 10 10 10 10 10 10 10 10 11 11 11 11 11
20 19 20 19 19 19 19 19 19 19 19 19 18 18 17 17 16 16 15 15 14 14 14 13 13 14 13 12 11 10 10 9 8 8 8 8 8 8 9 10 10 10 10
Height
780 783 786 788 790 792 793 794 794 795 797 798 800 802 804 805 806 807 808 808 808 809 810 811 811 811 810 810 810 812 812 811 812 810 812 811 811 811 812 812 813 813 812
778 780 782 784 785 786 786 789 792 793 794 796 798 800 801 803 804 804 805 806 807 807 807 807 809 810 811 811 810 810 811 811 812 811 810 810 810 810 810 810 811 810 809
772 775 778 780 781 784 784 783 785 788 793 796 796 799 799 801 802 803 804 803 803 803 804 805 806 807 809 810 811 810 811 811 811 811 811 809 808 808 808 809 808 807 807
768 770 771 774 777 777 779 781 782 783 785 790 792 793 790 787 788 789 794 800 801 802 802 803 804 804 806 808 810 810 809 810 810 810 810 809 808 806 805 806 806 805 804
768 768 771 771 772 774 777 777 776 776 780 785 785 792 790 788 793 791 793 792 796 798 801 801 803 804 804 806 807 808 809 809 808 807 807 807 807 806 807 805 805 803 802
768 771 772 771 772 774 775 776 777 778 781 782 787 789 788 782 788 787 787 789 792 793 796 798 800 802 803 803 805 807 808 808 809 808 808 808 809 807 807 807 805 805 803
776 775 776 777 778 780 781 780 781 780 781 783 784 785 781 779 784 784 785 784 786 789 791 794 796 797 799 802 802 804 805 807 807 807 808 808 808 808 807 807 807 806 804
782 783 783 783 783 783 783 783 783 782 781 781 780 778 777 776 777 777 781 782 782 784 786 789 791 796 799 800 800 801 802 803 804 805 805 806 805 805 806 807 805 804 802
788 788 788 787 787 786 785 784 783 781 779 777 775 773 773 772 771 773 775 777 779 782 785 788 791 791 798 797 799 800 800 798 802 803 805 805 803 801 801 801 803 805 800
792 791 791 790 790 789 789 786 782 779 776 773 771 770 769 768 768 768 770 770 773 778 783 787 789 793 797 798 798 801 801 794 799 804 804 802 800 798 798 796 797 800 800
795 794 794 793 793 793 791 787 783 780 776 774 771 769 767 767 768 770 771 766 772 775 781 786 789 792 797 800 799 803 801 793 794 803 803 799 796 792 792 792 794 795 796
796 796 796 795 795 793 792 789 787 785 782 781 779 777 776 776 775 775 775 766 773 782 783 791 794 796 798 802 801 803 800 793 797 800 801 798 796 792 791 791 793 792 793
797 798 798 797 796 796 794 792 790 788 787 787 785 785 786 785 784 784 784 781 785 789 791 795 797 798 798 801 801 802 797 797 801 801 799 799 796 793 791 790 791 790 788
798 799 800 800 799 798 798 797 795 793 792 791 791 791 792 792 791 791 790 789 792 793 796 798 799 799 799 798 797 797 797 797 797 798 799 797 795 793 791 789 787 785 784
801 801 800 801 801 800 800 799 798 798 798 797 796 796 794 794 793 793 793 793 793 794 794 796 796 795 793 792 792 792 793 795 796 796 795 795 793 792 789 788 786 783 783
800 800 800 800 800 800 802 802 801 800 800 799 799 798 797 796 795 795 794 793 793 793 792 793 794 794 793 792 792 793 791 793 794 793 792 791 791 789 787 786 785 783 781
800 801 801 801 802 802 802 803 805 804 803 802 802 800 799 799 797 796 795 795 794 793 793 792 793 793 793 794 793 794 792 793 792 791 791 789 789 787 787 785 783 783 781
803 801 801 802 802 802 803 804 804 803 803 803 803 803 803 802 800 799 798 796 795 793 793 793 793 793 793 793 793 792 792 792 791 790 789 787 786 785 784 783 782 780 779
803 802 802 803 803 803 803 803 802 801 800 802 804 805 804 803 802 801 799 798 796 795 795 795 795 795 795 794 794 794 792 791 789 788 786 785 784 784 783 781 780 779 777
805 805 804 804 804 804 803 801 800 801 800 801 804 805 804 802 799 799 800 800 799 798 798 798 797 797 796 794 793 792 790 789 788 785 784 784 782 781 780 778 778 776 775
805 806 806 804 804 804 803 803 804 803 803 803 806 806 805 803 802 801 801 801 799 799 798 798 797 795 794 792 791 790 789 787 786 784 784 783 781 780 779 778 776 775 774
805 806 806 806 807 807 806 806 806 806 805 805 805 806 805 804 803 802 800 799 798 797 796 795 794 793 791 790 788 787 786 785 784 783 781 780 779 778 777 775 774 772 771
805 806 807 807 808 807 807 807 809 809 808 807 806 806 804 803 801 799 798 797 796 795 793 792 791 790 789 788 786 785 783 782 781 779 777 775 775 774 772 771 769 767 766
807 808 808 810 809 808 809 808 808 809 809 807 806 805 803 802 800 799 798 797 796 795 794 793 792 791 788 786 783 781 780 778 777 775 774 771 769 768 766 764 763 760 758
808 809 810 810 810 810 809 809 809 809 808 807 806 804 802 802 802 801 799 797 796 796 795 793 792 789 786 784 781 778 778 776 774 772 769 766 764 761 759 756 754 752 750
810 810 810 810 810 810 810 810 809 808 807 806 805 804 803 803 803 802 801 799 798 797 795 793 790 788 786 779 778 775 774 771 769 766 763 760 757 754 751 748 745 742 740
Wind_Speed
22 22 24 23 22 23 19 20 19 17 15 15 13 11 10 9 8 8 10 3 5 6 5 1 2 4 3 5 2 4 3 7 5 10 9 6 4 4 2 5 8 9 16
18 20 22 23 23 23 24 22 22 21 17 16 14 12 12 11 10 11 10 9 9 7 7 6 5 5 3 4 2 3 5 5 4 10 12 11 7 5 7 10 11 13 8
19 19 19 18 21 20 18 24 22 21 17 14 13 14 14 12 13 14 13 12 11 11 11 10 8 7 5 4 4 3 5 2 3 7 9 11 11 6 9 10 13 12 13
10 18 20 22 19 17 20 21 22 19 20 16 13 17 23 25 25 23 18 16 13 13 12 11 10 9 9 6 5 5 6 3 6 9 12 14 10 9 9 10 11 14 13
6 6 6 12 14 15 16 15 17 17 17 5 14 23 25 20 20 20 19 18 15 14 13 11 9 10 10 9 7 1 1 4 6 10 9 12 8 9 9 9 13 12 12
12 16 14 9 11 9 10 12 13 10 12 22 34 27 26 18 22 21 24 19 17 16 12 11 11 9 12 13 8 6 6 2 2 4 8 9 12 10 13 13 12 13 5
17 18 18 17 16 15 14 13 14 9 4 15 21 21 18 17 23 21 25 22 20 19 17 14 11 7 15 9 7 5 5 6 5 5 6 6 9 11 11 12 13 14 13
18 17 17 17 15 16 16 15 14 13 14 17 21 23 21 25 25 23 22 28 20 16 19 16 11 5 6 9 9 7 7 9 8 7 5 5 10 12 10 9 12 16 17
14 14 14 13 13 14 19 20 18 18 19 20 21 23 24 25 23 25 24 26 24 16 10 9 7 6 8 4 6 8 6 6 7 6 10 11 9 7 9 12 15 15 15
12 10 11 12 12 15 17 19 18 17 17 17 18 20 20 20 19 20 27 27 15 11 6 8 7 3 5 1 2 3 5 7 12 1 7 14 15 15 13 10 8 12 16
9 8 10 10 13 17 19 22 20 19 19 22 25 23 19 12 8 7 10 23 25 27 27 24 18 12 9 8 7 8 7 8 7 15 17 21 22 17 18 16 15 10 11
6 8 11 12 11 11 14 18 22 20 23 22 22 25 25 22 18 15 14 18 19 20 21 15 13 11 10 9 9 9 12 13 15 14 22 23 15 12 12 2 8 12 12
7 11 11 10 8 14 12 14 14 17 16 18 20 20 19 17 17 14 14 13 13 12 8 3 3 4 1 4 9 9 7 8 14 18 18 21 21 17 16 14 14 14 17
8 11 11 11 14 12 14 17 17 18 16 14 12 12 12 14 13 13 11 10 8 7 5 2 4 9 14 16 15 13 10 10 12 14 18 16 16 16 17 17 19 17 18
8 7 9 7 6 11 14 15 12 15 16 12 12 11 10 9 8 7 6 5 5 5 6 7 7 9 12 13 15 14 13 13 12 7 9 12 14 16 19 20 20 22 17
8 5 2 1 6 7 9 10 13 10 7 9 8 9 12 9 7 6 6 6 6 7 4 6 8 8 9 8 5 6 4 4 4 6 10 12 14 14 17 19 18 17 16
4 9 6 9 8 4 4 6 7 13 13 13 13 14 14 13 11 10 9 8 6 7 6 5 4 4 5 4 4 3 5 8 9 8 8 8 10 11 13 14 13 14 12
2 3 5 5 8 7 6 5 5 6 5 5 10 11 12 11 12 11 13 10 6 3 2 3 4 3 4 4 5 6 6 7 8 6 10 12 12 11 12 12 12 11 8
11 9 7 6 7 8 7 2 4 4 5 9 7 5 8 10 6 3 7 12 14 11 13 13 10 11 12 12 12 10 9 11 7 11 8 10 8 12 13 11 13 14 15
6 6 7 6 6 4 3 4 5 10 9 9 12 12 10 8 8 4 7 9 8 10 9 8 10 12 11 10 9 9 11 13 14 11 11 12 12 13 11 13 15 16 16
8 5 2 3 8 12 11 11 10 11 11 10 9 10 9 9 12 11 11 11 11 10 10 8 8 10 11 9 9 11 14 15 14 13 15 18 18 17 17 16 18 18 19
3 4 7 8 8 6 7 7 7 7 5 8 5 3 6 7 10 8 6 8 7 7 8 8 10 10 12 12 12 9 11 15 17 17 16 16 16 16 16 16 18 18 16
3 4 6 4 3 1 1 7 7 8 9 7 7 7 7 6 9 8 10 12 12 13 13 10 12 15 19 19 20 21 19 17 18 19 17 14 18 18 16 17 18 19 20
3 5 5 6 5 7 7 5 3 2 4 7 9 9 10 11 14 17 16 16 17 19 21 21 21 20 21 20 20 20 17 15 16 17 18 21 22 22 22 23 23 24 22
5 4 4 4 4 5 5 7 7 6 8 8 11 12 12 15 16 18 17 14 15 16 19 21 23 23 24 24 17 12 15 15 15 16 18 20 22 22 24 25 26 27 27
3 3 2 4 5 5 6 7 7 7 9 10 12 13 15 16 17 20 19 19 19 18 20 21 21 21 22 15 21 25 23 24 27 29 29 30 25 25 26 27 27 28 27
Wind_Direction
208 209 208 212 221 221 233 239 227 225 224 225 211 207 208 219 233 245 250 204 210 226 264 262 257 298 262 15 158 312 354 14 328 321 10 65 41 328 234 266 279 261 262
212 218 214 213 218 221 215 224 233 231 228 218 222 215 211 220 232 232 235 242 221 222 222 215 219 240 272 286 242 235 278 300 312 319 314 317 309 238 241 264 271 251 321
206 209 218 224 220 240 243 215 220 222 229 236 226 224 217 221 233 237 239 237 216 220 216 208 219 222 233 252 284 301 342 288 257 273 310 287 276 271 287 264 257 269 279
220 209 214 218 240 243 237 246 230 218 214 218 225 225 216 213 214 211 215 226 236 232 224 214 220 215 213 227 247 242 270 248 273 242 268 282 285 274 224 276 285 262 269
339 286 290 234 233 239 264 266 234 218 201 194 314 274 240 218 224 214 215 207 216 232 226 217 231 234 215 201 215 275 137 250 309 345 332 327 23 4 358 338 326 309 298
45 42 34 14 9 358 308 311 305 291 250 197 256 262 254 231 246 225 211 209 209 212 224 211 228 241 238 239 242 254 256 283 300 335 329 356 16 1 353 354 336 338 337
49 44 36 33 29 22 15 7 358 4 214 229 241 252 262 263 260 243 225 200 202 208 212 216 220 245 223 199 193 218 254 246 247 257 271 301 334 334 330 322 317 334 311
52 47 42 36 28 17 10 2 346 330 305 282 271 275 274 264 265 259 233 207 203 208 212 206 197 157 192 209 212 224 245 241 250 248 237 249 285 281 287 288 299 300 296
54 44 34 25 20 22 12 353 341 330 317 306 294 283 273 271 264 250 214 213 218 216 202 191 173 172 233 225 250 278 298 319 284 241 247 290 308 299 279 269 272 285 285
49 47 41 33 33 26 10 358 347 341 324 309 294 297 292 290 271 239 214 205 196 204 185 180 154 222 263 215 340 277 323 42 15 268 303 299 285 276 259 248 257 254 287
65 55 43 30 40 37 26 22 20 22 27 41 56 51 40 16 22 51 139 97 73 74 66 67 70 71 37 11 360 322 324 358 352 316 303 297 297 281 263 246 242 233 255
70 52 49 45 46 47 38 35 40 42 48 49 50 58 63 68 82 79 91 96 111 87 79 65 57 45 36 13 18 1 360 2 337 315 309 306 339 354 17 14 249 246 252
80 75 69 46 52 46 44 33 44 55 53 49 56 60 63 65 69 80 82 86 89 98 108 120 195 229 251 310 299 295 311 313 308 311 315 318 326 327 324 324 308 288 280
91 111 90 62 55 55 43 39 37 27 44 53 57 56 49 54 60 63 75 78 78 83 91 128 224 263 270 282 291 282 276 273 283 287 296 310 322 334 328 324 316 299 293
80 75 98 94 108 74 59 55 60 46 45 41 44 46 39 58 53 48 41 33 6 333 320 321 299 310 329 321 313 292 273 286 279 258 285 303 309 312 311 317 322 327 335
142 96 104 131 116 105 112 72 59 53 35 32 35 46 34 30 9 348 343 342 340 328 318 334 342 329 325 326 322 342 313 283 275 297 301 311 311 316 320 319 323 335 344
49 65 41 55 53 51 79 129 98 74 65 62 59 56 51 39 22 10 10 10 10 14 14 0 12 35 35 19 350 347 334 315 316 329 322 320 316 318 319 322 332 335 345
339 40 24 88 73 62 70 95 141 155 135 110 83 65 53 50 50 45 20 2 321 334 16 21 358 350 339 342 342 348 349 336 328 331 316 297 288 297 305 318 318 299 302
44 35 37 39 43 38 45 83 149 160 165 150 116 41 359 337 327 5 36 14 5 6 23 8 17 8 358 3 355 347 333 314 291 298 297 305 331 316 301 307 304 320 321
67 37 8 41 43 24 352 339 31 13 30 79 75 34 360 335 294 30 30 40 354 5 26 353 8 349 344 319 309 310 317 323 316 309 302 314 327 309 309 338 335 324 310
103 71 43 21 36 14 24 26 23 17 19 32 105 55 42 349 322 32 15 10 357 13 2 348 341 314 300 317 320 318 310 312 326 2 10 346 347 346 337 336 331 329 331
81 54 41 43 47 34 10 34 41 27 37 15 89 98 7 347 2 357 348 328 325 321 317 316 313 313 309 311 314 319 332 327 323 327 328 329 326 315 313 313 312 299 305
54 90 104 90 64 261 17 55 41 18 355 18 0 0 336 335 320 332 343 351 354 346 335 331 338 342 335 329 323 321 314 304 297 307 298 290 295 295 291 291 290 290 295
71 84 83 79 46 40 16 7 39 39 340 355 340 346 335 344 0 355 359 358 16 16 15 6 359 352 349 350 327 304 311 320 317 314 309 302 293 288 285 284 284 284 281
85 80 79 60 37 23 13 355 6 356 334 352 343 328 3 11 353 351 357 16 7 358 348 343 338 329 330 326 342 6 352 344 336 327 318 308 300 294 287 281 279 278 277
69 80 60 26 19 7 5 351 336 330 325 349 337 8 10 10 4 355 3 7 356 344 340 337 331 329 342 348 345 345 343 334 327 320 315 310 301 289 285 282 281 281 279